Regional Weather Roundup
Issued by NWS Northern Indiana

Home | Current Version | Previous Version | Graphics & Text | Print | Product List | Glossary On
Versions: 1 2 3 4 5 6 7 8 9 10 11 12 13 14 15 16 17 18 19 20 21 22 23 24 25 26 27 28 29 30 31 32 33 34 35 36 37 38 39 40 41 42 43 44 45 46 47 48 49 50
000
ASUS43 KIWX 230810
RWRIWX

KIWX WEATHER ROUNDUP
NATIONAL WEATHER SERVICE NORTHERN INDIANA
400 AM EDT MON APR 23 2018

NOTE: "FAIR" INDICATES FEW OR NO CLOUDS BELOW 12,000 FEET WITH NO
SIGNIFICANT WEATHER AND/OR OBSTRUCTIONS TO VISIBILITY.

* THESE STATIONS ARE NOT UNDER NWS QUALITY CONTROL. THEY ALSO MAY NOT
  REPORT WEATHER SUCH AS PRECIPITATION OR FOG.

INZ001>027-230900-
NORTHERN INDIANA

CITY           SKY/WX    TMP DP  RH WIND       PRES   REMARKS
GARY*          FAIR      44  29  57 CALM      30.20S
VALPARAISO     FAIR      42  24  49 E9        30.19F
MICHIGAN CITY* FAIR      45  21  39 E3        30.20F
LAPORTE*       FAIR      42  25  50 E8        30.20S
KNOX*          FAIR      43  25  49 E8        30.18F
SOUTH BEND     FAIR      44  21  40 E7        30.21F
GOSHEN         FAIR      43  25  49 E9        30.20F
MONTICELLO*    FAIR      46  21  37 NE10      30.15S
LOGANSPORT*    FAIR      45  25  45 NE8       30.16S
ROCHESTER*     FAIR      46  27  46 NE6       30.18S
WARSAW*        FAIR      43  27  52 E8        30.19S
AUBURN*        FAIR      41  28  60 E9        30.21S
FORT WAYNE     MOCLDY    41  28  60 NE9       30.19S
HUNTINGTON*    FAIR      42  26  53 E6        30.17F
PERU/GRISSOM   FAIR     N/A N/A N/A NE12        N/A
MARION*        FAIR      43  27  52 E12       30.15F

$$
INZ028>050-230900-
CENTRAL INDIANA

CITY           SKY/WX    TMP DP  RH WIND       PRES   REMARKS
LAFAYETTE      FAIR      46  25  43 NE14      30.14S
KOKOMO*        FAIR      42  28  57 E9        30.16F
MUNCIE*        FAIR      44  29  55 E7        30.14F
INDIANAPOLIS   MOCLDY    50  29  44 NE15G22   30.09F

$$
MIZ043>046-050>051-056>058-064>065-071>073-077>080-230900-
SOUTHWEST LOWER MICHIGAN

CITY           SKY/WX    TMP DP  RH WIND       PRES   REMARKS
BATTLE CREEK   FAIR      43  23  45 E5        30.25F
BENTON HARBOR  FAIR      44  23  43 E6        30.22F
COLDWATER*     FAIR      44  22  41 E7        30.22F
HILLSDALE*     FAIR      45  21  39 E14G22    30.22F
HOLLAND        FAIR      42  27  55 NE6       30.26S
GRAND RAPIDS   FAIR      40  28  62 E8        30.27S
KALAMAZOO      FAIR      44  23  43 NE6       30.24F
STURGIS*       FAIR      44  24  46 E8        30.21S
THREE RIVERS*  FAIR      41  26  55 NE5       30.23S

$$
OHZ001>008-015>018-024>025-230900-
NORTHWEST OHIO

CITY           SKY/WX    TMP DP  RH WIND       PRES   REMARKS
WAUSEON*       FAIR      41  25  52 NE10      30.22F
DEFIANCE       FAIR      42  29  59 NE6       30.21F
FINDLAY        FAIR      45  26  47 NE9       30.19S
TOLEDO EXPRESS FAIR      44  31  60 NE9       30.22F
TOLEDO METCALF FAIR      44  33  65 NE8       30.24F
LIMA           FAIR      42  29  59 NE9       30.17F

$$
AND FOR LAKE MICHIGAN COASTAL AND OPEN LAKE BUOY OBSERVATIONS

STATION/POSITION TEMP    WIND        PRES    VSBY  WAVE
                 AIR SEA DIR/SP/G                  HT/PER
                 (F)     (DEG/KT/KT) (MB)    (MI)  (FT/S)
CALUMET HARBOR    43      40/  4/  6 1022.1F
MICHIGAN CITY     48      80/  9/ 11   N/A
BURNS HARBOR      45      70/  5/  7 1023.0F
SAINT JOSEPH      45      30/  2/  3 1023.0

$$
&&




USA.gov is the U.S. government's official web portal to all federal, state and local government web resources and services.